RH
53 58 68 58 75 78 59 48 51 56 47 50 50 49 64 68 58 74 69 66 67 63 61 58 52 50 55 60 64 61 58 54 57 50 58 62 60 63 67 69 64 67 66 62 55 67 72 66 61
58 59 65 68 79 79 68 48 54 46 46 50 53 56 64 71 70 69 72 61 62 62 62 58 62 59 62 57 57 59 67 54 46 45 60 64 62 67 71 70 71 70 70 64 66 68 63 61 64
59 68 58 83 79 78 66 48 46 38 44 45 51 58 66 78 64 54 53 59 61 61 58 51 58 57 55 57 57 55 55 54 41 58 68 61 64 62 64 67 71 78 74 70 69 61 65 71 69
55 65 70 79 67 50 44 45 40 40 47 47 57 67 65 60 52 53 53 57 58 60 61 43 41 46 51 52 58 61 64 54 57 69 77 76 69 59 62 63 64 64 60 56 59 57 70 73 77
63 59 83 86 70 46 43 39 39 43 47 52 57 64 74 65 56 57 56 57 57 56 53 48 37 41 54 64 64 66 68 64 66 69 78 79 74 68 65 62 60 55 48 48 51 56 69 71 81
66 70 88 95 72 43 41 39 38 44 48 50 52 56 64 62 55 73 69 66 55 53 56 52 45 48 52 57 67 64 44 42 67 70 73 75 72 82 60 42 39 38 34 39 46 54 64 76 73
83 93 95 93 81 53 42 38 37 46 48 47 48 57 66 75 73 78 70 74 63 54 55 53 44 49 62 61 64 59 62 66 64 63 71 63 60 55 44 38 31 27 28 34 42 51 73 77 74
75 90 90 89 83 78 44 36 37 41 42 46 47 60 65 73 66 73 70 64 72 48 55 51 50 54 60 55 55 52 55 53 61 61 54 57 58 62 44 37 31 29 28 26 29 47 57 69 69
72 95 96 81 79 60 50 47 38 40 43 42 42 55 61 64 64 67 76 70 65 48 54 59 55 53 54 60 57 56 54 55 57 55 48 55 55 57 45 38 35 44 51 33 28 28 43 58 63
83 89 79 66 66 63 55 54 51 40 42 44 50 55 61 64 67 69 67 69 64 64 56 60 59 58 60 56 46 54 53 50 54 52 54 53 58 54 45 44 45 65 71 73 70 62 56 54 56
89 85 63 57 58 60 56 54 46 43 52 44 52 62 62 63 65 64 66 60 61 66 62 59 67 62 58 45 54 66 68 82 83 77 72 59 55 52 45 50 64 63 70 71 73 70 69 71 70
66 59 60 52 57 50 50 52 56 50 48 44 44 52 58 61 59 63 69 66 63 61 65 69 72 65 50 55 56 65 77 80 83 78 68 58 59 53 60 60 63 67 70 69 69 65 63 64 64
54 51 58 49 54 49 47 53 58 61 48 40 43 46 47 51 59 57 55 59 62 59 62 66 61 65 65 61 67 72 69 74 72 72 71 62 67 63 58 65 68 68 64 65 70 63 63 60 54
47 50 62 48 42 46 48 62 55 61 47 42 39 42 43 44 49 55 60 62 62 57 59 65 65 68 70 74 70 65 70 76 74 67 73 73 66 62 66 70 68 66 68 61 60 65 68 66 55
44 71 67 67 55 52 51 66 68 52 55 47 42 39 40 44 46 47 49 56 56 56 62 58 63 64 63 66 68 70 67 68 71 74 79 73 64 62 64 73 72 68 67 64 64 62 67 63 54
49 61 74 66 57 55 48 68 68 55 56 58 50 47 39 45 46 47 50 53 58 60 63 61 58 60 61 64 66 70 70 63 75 71 76 72 70 63 72 70 70 66 61 64 58 61 63 59 52
44 67 78 70 62 62 56 73 64 56 57 55 55 45 39 45 45 49 47 53 57 60 67 65 64 61 62 65 65 74 73 71 70 76 71 70 65 69 71 63 63 63 52 54 60 64 62 57 56
32 54 60 62 58 69 68 66 67 48 48 61 52 50 44 46 47 49 50 54 57 66 66 62 62 67 63 71 74 75 72 71 73 70 62 64 64 69 68 65 67 65 58 61 60 65 70 60 54
24 35 52 53 50 63 66 63 72 57 55 60 51 50 47 44 44 47 48 53 60 66 63 61 65 68 70 75 72 72 71 72 66 68 59 71 66 71 73 69 60 59 61 60 59 64 67 64 61
16 40 59 60 56 60 66 65 62 67 59 56 55 47 47 44 46 48 48 53 58 61 61 61 59 61 62 63 70 70 75 66 68 67 67 69 66 68 71 66 58 51 59 49 54 58 56 57 56
12 35 61 65 59 55 63 65 70 61 61 55 64 53 44 46 42 46 49 52 56 60 61 58 58 61 57 60 67 72 74 73 73 69 70 76 68 67 76 70 67 54 51 58 58 55 50 58 50
20 15 40 49 59 65 43 61 54 70 68 62 61 63 45 47 42 44 50 51 52 55 58 58 61 58 63 68 64 67 72 69 67 65 66 68 78 73 78 71 67 62 53 57 56 45 51 57 54
17 11 27 44 37 31 43 55 53 62 78 65 59 59 52 44 45 45 47 46 48 52 53 54 57 62 66 68 65 74 68 68 69 66 69 74 76 78 72 75 60 66 57 60 67 62 54 56 65
11 13 19 24 32 34 30 51 52 82 70 62 59 60 55 48 44 45 50 47 46 51 51 53 58 60 68 64 61 70 70 70 75 69 69 71 68 72 65 78 72 65 60 59 70 69 65 66 57
13 20 29 26 34 37 28 48 38 46 59 60 59 57 52 52 49 47 51 50 49 49 52 54 52 62 66 66 65 70 70 73 74 68 65 68 70 68 62 71 74 77 60 62 65 61 64 66 56
13 18 27 27 45 29 31 52 56 44 53 53 54 55 52 54 50 48 46 50 51 48 49 52 53 52 60 69 66 72 69 78 81 76 75 69 64 64 63 66 66 65 61 55 63 58 62 60 62
11 18 17 20 25 32 42 43 36 48 57 60 58 57 51 55 53 48 46 51 55 50 48 48 52 50 56 59 62 68 67 72 74 73 71 68 68 73 72 71 73 74 73 73 68 66 68 65 69
12 14 25 42 34 39 63 60 60 43 61 57 59 54 53 50 51 52 47 52 50 50 47 46 52 50 48 57 56 60 63 66 58 65 68 70 73 76 74 76 76 78 79 74 74 76 77 75 78
19 20 26 34 44 51 55 57 49 43 42 54 62 57 54 47 46 55 56 54 51 50 48 48 52 54 52 56 54 57 57 64 67 59 69 72 77 81 78 75 81 78 77 81 82 80 87 82 74
17 19 27 36 32 49 54 50 44 39 51 45 48 54 57 48 46 50 54 53 51 58 64 58 52 54 54 56 60 60 57 58 56 67 72 77 81 79 78 73 74 79 75 71 75 81 84 84 80
Wind_Speed
3 4 5 5 4 3 2 2 4 5 4 14 15 10 8 13 2 4 20 22 25 23 24 25 23 23 23 23 22 22 22 19 17 16 16 16 17 16 16 15 15 15 15 14 14 15 15 16 18
2 7 4 3 4 3 2 5 11 13 22 28 23 19 13 5 16 25 28 26 24 23 23 23 22 24 24 24 22 20 19 19 16 15 14 14 16 16 16 16 16 16 16 16 16 17 17 19 18
5 6 3 3 2 3 2 2 12 20 23 19 10 16 6 9 27 35 29 27 23 20 21 22 22 20 22 24 23 19 18 17 17 13 14 14 15 15 16 15 16 15 16 17 17 17 18 18 17
4 5 7 3 2 5 5 8 20 22 28 28 22 10 11 22 33 32 30 26 22 20 20 22 22 20 20 16 16 16 16 16 16 14 14 15 14 15 14 14 14 14 15 15 16 17 18 18 16
7 5 3 3 5 4 8 18 21 14 13 26 30 14 19 26 28 30 27 23 21 22 20 20 19 18 16 15 16 16 15 15 15 15 16 16 16 16 15 15 14 14 15 15 16 17 17 16 14
6 4 3 4 7 2 5 13 24 22 25 25 23 17 12 31 29 26 22 22 17 19 20 20 19 18 17 15 16 15 15 15 14 14 15 15 15 15 14 15 15 13 14 15 15 16 16 15 15
8 4 4 7 8 3 8 10 16 25 25 12 25 9 18 34 30 29 21 18 20 17 17 19 18 18 17 15 16 14 15 14 15 14 14 14 14 14 14 16 16 16 16 16 16 16 15 15 14
13 5 1 4 4 6 8 7 26 27 14 27 32 9 23 31 33 28 19 15 17 15 16 17 17 17 17 16 16 15 14 14 14 13 14 13 13 14 14 16 17 18 18 17 16 15 15 15 13
11 4 3 5 7 3 12 10 10 19 29 24 6 34 38 35 35 24 20 23 18 19 16 16 16 17 17 15 14 15 15 15 15 14 14 13 13 14 16 16 18 20 20 19 17 15 15 14 12
1 3 11 11 10 1 8 7 4 15 21 20 29 33 38 34 38 28 31 25 21 21 20 18 17 17 17 16 17 17 17 18 18 18 16 13 13 13 15 17 18 18 16 15 14 13 13 11 9
8 5 10 15 18 9 5 8 7 13 7 29 33 43 39 34 34 30 31 26 22 18 21 18 17 16 17 18 21 21 21 17 15 14 11 13 14 14 15 17 17 13 10 10 8 7 7 5 3
5 7 13 6 12 6 3 2 8 16 6 30 36 41 37 36 33 31 32 30 24 18 22 17 17 18 18 20 21 19 19 15 12 12 11 15 16 15 16 13 10 7 6 6 5 9 9 7 2
4 10 14 13 14 11 3 7 6 11 12 23 26 34 35 32 30 27 24 29 25 24 21 19 18 18 18 19 18 17 19 15 12 13 14 13 10 10 9 8 5 5 6 5 7 9 9 8 7
12 16 10 8 10 12 8 4 6 7 17 24 26 30 34 30 32 29 29 29 20 24 19 19 19 15 18 18 18 19 20 16 13 13 12 8 6 10 11 6 6 6 6 5 9 5 4 3 1
15 12 9 4 3 4 9 2 2 10 5 15 22 26 29 31 30 28 27 24 19 24 25 21 19 18 15 21 18 18 18 18 16 12 11 9 7 8 7 5 3 3 3 4 2 2 2 3 4
3 3 4 5 7 4 8 4 6 12 9 5 12 18 28 23 30 26 26 27 25 26 26 21 19 17 12 14 18 17 16 17 15 11 10 13 10 12 9 10 8 5 5 7 3 4 2 5 6
2 5 3 5 9 2 5 5 10 16 12 4 5 23 29 27 28 35 31 31 29 29 28 23 22 21 16 18 17 13 19 17 15 13 15 14 12 14 11 12 9 6 7 6 6 0 2 7 6
4 4 6 8 8 9 5 7 6 18 13 9 6 11 22 25 32 37 35 33 29 30 26 18 20 19 18 18 14 10 24 19 17 13 15 15 16 14 11 10 10 7 5 7 4 1 2 3 8
4 6 11 5 9 7 13 5 9 17 17 14 15 13 17 23 28 36 35 34 33 33 28 23 23 23 23 24 20 15 18 18 14 13 11 13 15 15 11 12 13 9 9 4 6 5 4 2 3
7 7 3 2 10 5 9 13 10 15 21 24 23 23 17 20 31 36 36 36 35 34 29 26 24 21 24 28 22 19 16 14 16 13 15 11 14 14 10 12 12 13 12 8 10 9 6 2 0
8 9 9 8 13 11 7 6 9 9 11 21 24 26 24 22 31 35 38 38 35 35 31 27 23 23 25 27 23 22 17 15 17 15 14 13 14 14 10 8 8 9 14 12 12 12 12 2 3
6 3 14 14 11 5 7 4 5 11 17 16 27 23 27 31 34 33 40 41 39 35 31 26 27 24 24 26 26 23 24 21 19 16 12 17 15 12 10 7 7 6 9 10 7 7 10 1 5
6 3 8 6 5 4 1 3 5 7 11 18 26 30 33 36 34 35 41 43 40 35 31 27 31 29 25 27 25 22 23 19 16 15 15 19 15 13 14 9 9 7 7 13 6 4 4 4 1
3 6 8 5 3 2 6 6 5 5 11 16 23 33 32 36 36 36 32 43 42 37 32 29 30 31 28 29 29 26 23 19 21 19 18 17 17 17 15 12 9 7 9 8 6 5 6 7 5
7 7 4 4 3 6 2 5 8 6 7 16 24 31 32 32 33 36 34 37 44 41 37 33 29 34 32 33 31 25 25 22 17 21 20 19 19 17 18 17 13 11 9 11 11 10 8 8 9
3 8 6 5 4 6 2 4 4 3 8 19 24 26 27 29 31 36 44 32 40 45 41 36 32 29 35 32 34 30 26 26 21 19 20 17 16 14 16 17 14 12 10 11 12 14 12 9 10
2 1 7 5 1 2 2 2 3 7 6 4 6 13 26 24 25 37 42 33 36 46 44 40 36 29 33 35 34 35 30 31 29 22 22 19 17 18 16 17 15 16 15 13 13 13 11 11 12
9 5 4 3 2 2 3 1 4 1 2 0 6 18 27 22 20 28 40 39 40 40 45 42 40 33 30 33 33 36 33 32 30 27 24 23 20 17 17 16 17 17 15 12 14 13 13 14 13
1 1 3 5 5 4 2 5 4 2 2 3 3 5 15 19 23 25 31 39 35 37 42 46 44 38 32 33 30 35 35 35 31 29 26 24 24 22 21 19 17 16 15 16 17 17 15 15 14
7 9 6 5 5 2 4 5 3 3 7 4 2 5 6 19 21 14 12 28 28 38 41 47 46 41 36 33 34 31 34 34 34 32 31 26 27 25 24 23 23 20 18 16 17 18 18 17 17
Wind_Direction
337 311 352 27 60 62 283 41 109 174 76 79 100 124 97 37 119 160 138 141 140 135 125 124 137 136 139 135 129 127 120 119 115 121 126 128 130 127 124 126 127 131 132 129 129 126 123 120 117
266 274 28 63 64 52 1 108 99 99 118 101 83 83 55 75 107 135 145 143 141 136 137 136 131 126 133 132 126 125 126 122 125 133 130 131 131 128 123 119 120 128 127 126 126 126 128 132 128
45 5 3 60 113 191 156 136 109 121 128 107 96 71 78 120 132 139 141 142 141 140 139 135 132 131 132 127 124 127 122 128 135 135 135 134 133 128 124 120 119 121 124 123 126 129 133 130 125
9 36 23 36 293 235 161 143 119 106 103 106 105 70 81 133 137 143 142 144 144 144 145 142 136 140 135 130 138 137 139 141 142 145 135 132 131 129 125 125 122 123 124 125 133 137 136 130 121
60 47 59 338 321 299 145 137 132 118 87 107 110 124 129 144 142 143 147 145 152 147 147 146 149 146 147 150 147 143 149 146 139 144 131 123 130 126 124 123 125 120 117 125 135 140 140 130 121
62 20 47 17 314 61 129 145 113 107 117 113 108 112 141 157 151 152 150 151 152 151 153 153 150 155 156 154 148 146 142 145 145 145 141 126 127 129 125 121 119 119 122 126 131 138 138 128 123
91 57 347 325 278 292 53 131 132 120 128 134 130 105 134 152 155 159 158 171 160 158 157 157 155 156 150 151 150 148 149 148 150 152 147 134 128 129 123 116 113 113 117 124 130 143 141 130 126
115 104 83 254 318 284 358 61 153 138 124 138 129 148 156 165 162 148 161 166 163 162 161 161 159 159 157 156 152 149 151 152 151 142 145 137 128 131 127 116 113 114 113 115 126 139 148 145 144
91 100 187 215 244 339 353 61 150 144 139 154 156 154 160 170 170 168 162 170 156 151 162 161 161 160 159 155 152 149 147 147 142 136 141 140 131 130 124 118 119 114 104 105 112 126 137 141 142
1 149 209 214 205 151 328 57 12 144 150 120 126 148 155 162 168 172 162 162 154 144 157 164 165 160 159 156 149 148 150 140 130 125 124 133 129 129 126 127 125 113 104 99 100 109 117 122 126
187 200 199 226 227 218 331 6 37 120 106 146 145 149 162 165 164 168 163 162 160 159 159 156 157 158 159 153 146 141 139 134 127 124 110 121 131 131 129 128 119 100 88 88 90 93 101 105 153
150 196 185 193 217 155 151 23 46 80 126 153 154 157 165 171 173 174 168 162 167 177 168 163 163 163 157 146 149 148 146 143 145 136 122 120 123 131 124 127 126 106 88 81 86 98 74 50 139
187 155 181 160 166 184 116 72 98 72 168 148 162 164 167 173 175 176 173 171 170 170 169 174 175 164 158 160 154 154 158 149 151 155 139 129 127 141 147 144 119 78 82 83 88 89 77 57 76
169 93 78 93 132 164 163 115 166 120 135 169 170 168 180 180 179 178 175 171 171 171 165 174 176 172 175 161 161 150 161 152 160 155 155 169 154 153 143 135 108 84 68 74 91 72 8 359 54
151 110 85 54 171 236 137 118 173 156 133 178 178 186 186 189 187 189 179 177 176 168 164 171 180 188 193 190 176 166 156 154 158 173 183 169 159 172 180 157 160 135 103 136 146 258 293 262 146
123 71 118 277 326 183 157 247 244 200 200 164 190 216 193 168 184 193 184 176 178 172 173 168 176 180 177 158 178 189 177 168 182 180 174 169 178 176 177 174 165 173 196 200 190 180 178 208 121
242 153 105 301 203 262 153 260 235 194 200 188 231 188 189 176 181 187 180 181 178 176 174 177 183 186 182 174 167 178 180 191 193 201 208 196 196 192 192 185 189 216 199 199 183 100 270 206 205
208 131 177 184 205 210 172 242 273 207 213 191 227 176 199 189 190 187 182 183 178 174 175 181 191 189 186 187 188 193 195 196 198 202 208 209 192 198 193 207 213 206 203 217 232 198 42 182 211
232 248 169 215 161 166 200 220 224 222 222 230 220 207 176 204 193 183 183 184 177 176 178 176 181 198 194 201 197 194 187 192 190 190 172 173 183 184 205 208 202 210 197 244 215 232 183 130 89
273 195 174 107 171 149 190 225 210 210 219 218 211 206 191 182 180 182 186 183 183 184 188 185 183 191 196 198 193 189 183 201 197 199 187 177 189 197 206 199 205 217 206 214 213 240 204 303 114
274 173 177 167 192 211 147 281 182 229 240 224 229 222 210 189 184 181 186 188 191 191 193 193 189 187 192 197 197 194 197 202 206 201 194 192 188 192 205 208 185 208 229 189 182 199 188 340 234
206 96 184 163 151 204 157 243 250 193 211 218 231 208 204 197 187 192 190 191 198 200 199 202 192 191 195 199 205 205 208 204 195 198 194 184 184 189 203 215 204 194 180 201 166 186 191 222 199
217 21 134 145 173 100 282 46 271 153 211 217 212 222 207 203 195 188 196 199 203 203 209 210 197 197 197 204 204 206 209 213 198 204 195 187 193 191 206 227 216 196 215 192 150 158 170 228 296
82 59 40 55 113 14 211 156 278 193 213 210 210 218 214 214 206 203 196 202 203 206 210 212 206 199 200 206 207 209 210 202 210 196 194 189 198 205 208 224 232 234 224 214 212 225 237 262 279
79 62 6 356 15 222 124 148 244 297 246 200 202 212 216 218 213 203 192 202 207 204 210 210 210 205 205 209 212 212 203 208 212 212 204 198 204 208 209 214 222 239 235 231 239 248 255 257 267
178 142 155 195 186 259 339 211 256 292 318 214 210 210 209 218 215 209 203 215 215 208 211 212 211 212 210 213 215 212 209 209 216 216 216 219 215 202 199 212 226 224 225 225 234 243 244 247 251
265 119 185 122 75 41 245 319 5 7 30 67 211 209 219 205 219 208 199 215 214 213 213 216 213 211 208 214 215 217 213 213 217 217 217 225 218 220 216 215 228 247 243 244 245 248 253 247 244
150 185 50 15 159 291 321 246 213 212 74 334 270 241 226 227 224 216 211 213 216 218 219 219 218 216 209 211 213 213 218 218 219 223 214 214 216 220 220 224 229 230 239 247 248 243 247 245 245
337 334 78 116 140 167 182 262 249 129 304 192 251 259 227 227 229 213 209 208 215 218 219 218 221 217 213 213 212 214 217 218 221 219 213 210 218 222 227 228 226 233 241 251 245 242 242 249 252
193 198 147 131 244 166 149 267 268 128 188 175 147 137 157 209 207 219 223 223 221 213 214 218 218 223 218 216 216 215 218 219 219 218 219 217 217 222 229 236 241 250 253 248 248 248 250 254 250